| time (UTC) | temp F | wind direction | speed MPH | gust MPH | rain 1hr in | rain 24hr in | rain mn in | humidity % | barometer mb |
| 20260506102507 | 51 | 138 | 0.0 | 3.0 | 0.00 | 0.00 | 0.00 | 95 | 1019.5 |
| 20260506102003 | 51 | 129 | 1.0 | 3.0 | 0.00 | 0.00 | 0.00 | 95 | 1019.5 |
| 20260506101504 | 51 | 101 | 2.0 | 3.0 | 0.00 | 0.00 | 0.00 | 95 | 1019.5 |
| 20260506101003 | 51 | 130 | 1.0 | 2.0 | 0.00 | 0.00 | 0.00 | 95 | 1019.4 |
| 20260506100503 | 51 | 144 | 0.0 | 2.0 | 0.00 | 0.00 | 0.00 | 95 | 1019.3 |
| 20260506100007 | 51 | 148 | 0.0 | 2.0 | 0.00 | 0.00 | 0.00 | 95 | 1019.3 |
| 20260506095503 | 51 | 142 | 0.0 | 0.0 | 0.00 | 0.00 | 0.00 | 95 | 1019.4 |
| 20260506095004 | 51 | 142 | 0.0 | 0.0 | 0.00 | 0.00 | 0.00 | 95 | 1019.3 |
| 20260506094516 | 51 | 142 | 0.0 | 0.0 | 0.00 | 0.00 | 0.00 | 95 | 1019.3 |
| 20260506094004 | 51 | 142 | 0.0 | 0.0 | 0.00 | 0.00 | 0.00 | 95 | 1019.4 |
| 20260506093504 | 51 | 142 | 0.0 | 0.0 | 0.00 | 0.00 | 0.00 | 95 | 1019.3 |
| 20260506093016 | 51 | 142 | 0.0 | 0.0 | 0.00 | 0.00 | 0.00 | 95 | 1019.3 |
| 20260506092512 | 51 | 142 | 0.0 | 2.0 | 0.00 | 0.00 | 0.00 | 95 | 1019.3 |
| 20260506092007 | 51 | 142 | 0.0 | 2.0 | 0.00 | 0.00 | 0.00 | 95 | 1019.4 |
| 20260506091520 | 50 | 142 | 0.0 | 2.0 | 0.00 | 0.00 | 0.00 | 95 | 1019.4 |
| 20260506091007 | 50 | 142 | 0.0 | 2.0 | 0.00 | 0.00 | 0.00 | 95 | 1019.5 |
| 20260506090503 | 50 | 138 | 0.0 | 1.0 | 0.00 | 0.00 | 0.00 | 95 | 1019.5 |
| 20260506090005 | 50 | 159 | 0.0 | 0.0 | 0.00 | 0.00 | 0.00 | 95 | 1019.5 |
| 20260506085503 | 50 | 159 | 0.0 | 2.0 | 0.00 | 0.00 | 0.00 | 95 | 1019.4 |
| 20260506085003 | 50 | 159 | 0.0 | 2.0 | 0.00 | 0.00 | 0.00 | 95 | 1019.4 |
| 20260506084512 | 50 | 159 | 0.0 | 2.0 | 0.00 | 0.00 | 0.00 | 95 | 1019.5 |
| 20260506084003 | 50 | 159 | 0.0 | 2.0 | 0.00 | 0.00 | 0.00 | 95 | 1019.5 |
| 20260506083504 | 50 | 171 | 0.0 | 0.0 | 0.00 | 0.00 | 0.00 | 95 | 1019.5 |
| 20260506083015 | 50 | 252 | 0.0 | 0.0 | 0.00 | 0.00 | 0.00 | 95 | 1019.5 |
| 20260506082503 | 50 | 252 | 0.0 | 0.0 | 0.00 | 0.00 | 0.00 | 95 | 1019.5 |
| 20260506082007 | 50 | 252 | 0.0 | 0.0 | 0.00 | 0.00 | 0.00 | 95 | 1019.5 |
| 20260506081523 | 50 | 252 | 0.0 | 0.0 | 0.00 | 0.00 | 0.00 | 94 | 1019.5 |
| 20260506081009 | 50 | 252 | 0.0 | 0.0 | 0.00 | 0.00 | 0.00 | 94 | 1019.5 |
| 20260506080507 | 50 | 252 | 0.0 | 2.0 | 0.00 | 0.00 | 0.00 | 94 | 1019.5 |
| 20260506073506 | 50 | 317 | 0.0 | 0.0 | 0.00 | 0.00 | 0.00 | 94 | 1019.2 |
| 20260506073013 | 50 | 317 | 0.0 | 0.0 | 0.00 | 0.00 | 0.00 | 94 | 1019.2 |
| 20260506072503 | 50 | 317 | 0.0 | 0.0 | 0.00 | 0.00 | 0.00 | 94 | 1019.2 |
| 20260506072008 | 50 | 317 | 0.0 | 2.0 | 0.00 | 0.00 | 0.00 | 94 | 1019.1 |
| 20260506071517 | 50 | 317 | 0.0 | 2.0 | 0.00 | 0.00 | 0.00 | 94 | 1019.1 |
| 20260506071008 | 50 | 320 | 0.0 | 2.0 | 0.00 | 0.00 | 0.00 | 94 | 1018.9 |
| 20260506070507 | 50 | 321 | 0.0 | 2.0 | 0.00 | 0.00 | 0.00 | 94 | 1018.8 |
| 20260506062505 | 50 | 321 | 1.0 | 3.0 | 0.00 | 0.00 | 0.00 | 93 | 1018.6 |
| 20260506062007 | 50 | 318 | 0.0 | 3.0 | 0.00 | 0.00 | 0.00 | 93 | 1018.5 |
| 20260506061518 | 50 | 308 | 1.0 | 3.0 | 0.00 | 0.00 | 0.00 | 93 | 1018.5 |
| 20260506061009 | 50 | 319 | 1.0 | 3.0 | 0.00 | 0.00 | 0.00 | 93 | 1018.4 |
| 20260506060509 | 50 | 323 | 1.0 | 3.0 | 0.00 | 0.00 | 0.00 | 93 | 1018.5 |
| 20260506051009 | 51 | 323 | 2.0 | 3.0 | 0.00 | 0.00 | 0.00 | 92 | 1018.1 |
| 20260506050508 | 51 | 305 | 2.0 | 3.0 | 0.00 | 0.00 | 0.00 | 92 | 1018.0 |
| 20260506045011 | 51 | 352 | 1.0 | 3.0 | 0.00 | 0.00 | 0.00 | 92 | 1017.9 |
| 20260506044520 | 51 | 336 | 2.0 | 3.0 | 0.00 | 0.00 | 0.00 | 92 | 1017.9 |
| 20260506044013 | 51 | 323 | 2.0 | 3.0 | 0.00 | 0.00 | 0.00 | 92 | 1017.9 |
| 20260506043511 | 51 | 352 | 2.0 | 3.0 | 0.00 | 0.00 | 0.00 | 91 | 1017.8 |
| 20260506043021 | 51 | 336 | 2.0 | 3.0 | 0.00 | 0.00 | 0.00 | 91 | 1017.7 |
| 20260506042507 | 51 | 352 | 2.0 | 3.0 | 0.00 | 0.00 | 0.00 | 91 | 1017.6 |
| 20260506042012 | 51 | 344 | 2.0 | 5.0 | 0.00 | 0.00 | 0.00 | 91 | 1017.5 |
| 20260506041534 | 51 | 295 | 3.0 | 5.0 | 0.00 | 0.00 | 0.00 | 91 | 1017.5 |
| 20260506041003 | 52 | 290 | 3.0 | 5.0 | 0.00 | 0.00 | 0.00 | 91 | 1017.5 |
| 20260506040508 | 52 | 314 | 2.0 | 5.0 | 0.00 | 0.00 | 0.00 | 91 | 1017.3 |
| 20260506040021 | 52 | 320 | 2.0 | 5.0 | 0.00 | 0.00 | 0.00 | 91 | 1017.2 |
| 20260506035504 | 52 | 341 | 2.0 | 5.0 | 0.00 | 0.00 | 0.00 | 91 | 1017.1 |
| 20260506035008 | 52 | 323 | 1.0 | 7.0 | 0.00 | 0.00 | 0.00 | 91 | 1017.1 |
| 20260506034518 | 52 | 352 | 3.0 | 5.0 | 0.00 | 0.00 | 0.00 | 90 | 1017.0 |
| 20260506034010 | 52 | 313 | 2.0 | 4.0 | 0.00 | 0.00 | 0.00 | 90 | 1017.0 |
| 20260506033509 | 52 | 299 | 2.0 | 5.0 | 0.00 | 0.00 | 0.00 | 90 | 1016.8 |
| 20260506033027 | 52 | 327 | 2.0 | 5.0 | 0.00 | 0.00 | 0.00 | 90 | 1016.8 |
| 20260506032503 | 52 | 286 | 2.0 | 3.0 | 0.00 | 0.00 | 0.00 | 90 | 1016.9 |
| 20260506032004 | 52 | 324 | 0.0 | 5.0 | 0.00 | 0.00 | 0.00 | 90 | 1016.7 |
| 20260506031508 | 52 | 352 | 1.0 | 7.0 | 0.00 | 0.00 | 0.00 | 90 | 1016.5 |
| 20260506031003 | 52 | 305 | 3.0 | 8.0 | 0.00 | 0.00 | 0.00 | 90 | 1016.5 |
| 20260506030504 | 52 | 345 | 3.0 | 8.0 | 0.00 | 0.00 | 0.00 | 90 | 1016.3 |
| 20260506030013 | 52 | 298 | 3.0 | 8.0 | 0.00 | 0.00 | 0.00 | 90 | 1016.2 |
| 20260506025508 | 52 | 337 | 5.0 | 10.0 | 0.00 | 0.00 | 0.00 | 89 | 1016.2 |
| 20260506025006 | 53 | 337 | 7.0 | 10.0 | 0.00 | 0.00 | 0.00 | 89 | 1016.2 |
| 20260506024510 | 53 | 313 | 5.0 | 9.0 | 0.00 | 0.00 | 0.00 | 88 | 1016.1 |
| 20260506024003 | 53 | 298 | 6.0 | 9.0 | 0.00 | 0.00 | 0.00 | 88 | 1016.0 |
| 20260506023503 | 53 | 320 | 6.0 | 11.0 | 0.00 | 0.00 | 0.00 | 88 | 1016.0 |
| 20260506023003 | 53 | 326 | 6.0 | 11.0 | 0.00 | 0.00 | 0.00 | 87 | 1015.9 |
| 20260506022502 | 54 | 294 | 6.0 | 9.0 | 0.00 | 0.00 | 0.00 | 87 | 1015.9 |
| 20260506022003 | 54 | 346 | 4.0 | 9.0 | 0.00 | 0.00 | 0.00 | 86 | 1015.9 |
| 20260506021509 | 54 | 313 | 4.0 | 9.0 | 0.00 | 0.00 | 0.00 | 86 | 1015.9 |
| 20260506021004 | 54 | 300 | 4.0 | 9.0 | 0.00 | 0.01 | 0.00 | 85 | 1015.9 |
| 20260506020502 | 55 | 347 | 5.0 | 9.0 | 0.00 | 0.01 | 0.00 | 85 | 1015.8 |
| 20260506020007 | 55 | 328 | 4.0 | 9.0 | 0.00 | 0.01 | 0.00 | 85 | 1015.8 |
| 20260506015506 | 55 | 313 | 6.0 | 9.0 | 0.00 | 0.01 | 0.00 | 84 | 1015.7 |
| 20260506015004 | 55 | 310 | 4.0 | 8.0 | 0.00 | 0.01 | 0.00 | 84 | 1015.7 |
| 20260506014515 | 55 | 320 | 4.0 | 10.0 | 0.00 | 0.01 | 0.00 | 84 | 1015.7 |
| 20260506014004 | 56 | 334 | 5.0 | 10.0 | 0.00 | 0.01 | 0.00 | 83 | 1015.6 |
| 20260506013507 | 56 | 360 | 4.0 | 9.0 | 0.00 | 0.01 | 0.00 | 83 | 1015.6 |
| 20260506013004 | 56 | 321 | 4.0 | 10.0 | 0.00 | 0.01 | 0.00 | 82 | 1015.5 |
| 20260506012502 | 56 | 338 | 6.0 | 10.0 | 0.00 | 0.01 | 0.00 | 82 | 1015.5 |
| 20260506012002 | 57 | 299 | 5.0 | 8.0 | 0.00 | 0.01 | 0.00 | 81 | 1015.5 |
| 20260506011503 | 57 | 266 | 2.0 | 11.0 | 0.00 | 0.01 | 0.00 | 80 | 1015.5 |
| 20260506011003 | 57 | 338 | 4.0 | 11.0 | 0.00 | 0.01 | 0.00 | 81 | 1015.5 |
| 20260506010506 | 58 | 315 | 5.0 | 10.0 | 0.00 | 0.01 | 0.00 | 80 | 1015.4 |
| 20260506010007 | 58 | 309 | 4.0 | 8.0 | 0.00 | 0.01 | 0.00 | 79 | 1015.5 |
| 20260506005503 | 58 | 300 | 3.0 | 7.0 | 0.00 | 0.01 | 0.00 | 79 | 1015.5 |
| 20260506005003 | 58 | 307 | 2.0 | 9.0 | 0.00 | 0.01 | 0.00 | 80 | 1015.5 |
| 20260506004510 | 58 | 298 | 3.0 | 10.0 | 0.00 | 0.01 | 0.00 | 79 | 1015.4 |
| 20260506004006 | 58 | 352 | 4.0 | 10.0 | 0.00 | 0.01 | 0.00 | 79 | 1015.4 |
| 20260506003507 | 58 | 290 | 5.0 | 10.0 | 0.00 | 0.01 | 0.00 | 78 | 1015.5 |
| 20260506003019 | 59 | 321 | 4.0 | 10.0 | 0.00 | 0.01 | 0.00 | 78 | 1015.5 |
| 20260506002509 | 59 | 315 | 3.0 | 8.0 | 0.00 | 0.01 | 0.00 | 79 | 1015.5 |
| 20260506002002 | 59 | 9 | 2.0 | 8.0 | 0.00 | 0.01 | 0.00 | 78 | 1015.4 |
| 20260506001505 | 59 | 67 | 2.0 | 8.0 | 0.00 | 0.01 | 0.00 | 77 | 1015.4 |
| 20260506001004 | 59 | 333 | 4.0 | 7.0 | 0.00 | 0.01 | 0.00 | 76 | 1015.4 |
| 20260506000506 | 60 | 295 | 3.0 | 6.0 | 0.00 | 0.01 | 0.00 | 76 | 1015.4 |
| 20260506000004 | 60 | 335 | 2.0 | 9.0 | 0.00 | 0.01 | 0.00 | 77 | 1015.4 |
| 20260505235504 | 60 | 149 | 3.0 | 9.0 | 0.00 | 0.01 | 0.00 | 77 | 1015.3 |
| 20260505235003 | 60 | 248 | 2.0 | 7.0 | 0.00 | 0.01 | 0.00 | 76 | 1015.3 |
| 20260505234515 | 60 | 268 | 2.0 | 7.0 | 0.00 | 0.01 | 0.00 | 76 | 1015.3 |
| 20260505234005 | 60 | 15 | 3.0 | 8.0 | 0.00 | 0.01 | 0.00 | 77 | 1015.3 |
| 20260505233504 | 60 | 313 | 4.0 | 8.0 | 0.00 | 0.01 | 0.00 | 76 | 1015.3 |
| 20260505233016 | 60 | 360 | 2.0 | 8.0 | 0.00 | 0.01 | 0.00 | 76 | 1015.3 |
| 20260505232509 | 59 | 348 | 1.0 | 6.0 | 0.00 | 0.01 | 0.00 | 75 | 1015.4 |
| 20260505232009 | 59 | 352 | 3.0 | 11.0 | 0.00 | 0.01 | 0.00 | 76 | 1015.4 |
| 20260505231520 | 60 | 343 | 6.0 | 11.0 | 0.00 | 0.01 | 0.00 | 75 | 1015.5 |
| 20260505231007 | 60 | 279 | 1.0 | 7.0 | 0.00 | 0.01 | 0.00 | 75 | 1015.4 |
| 20260505230502 | 60 | 193 | 4.0 | 10.0 | 0.00 | 0.01 | 0.00 | 74 | 1015.4 |
| 20260505230009 | 60 | 286 | 4.0 | 10.0 | 0.00 | 0.01 | 0.00 | 76 | 1015.4 |
| 20260505225505 | 61 | 325 | 3.0 | 7.0 | 0.00 | 0.01 | 0.00 | 75 | 1015.5 |
| 20260505225003 | 60 | 55 | 2.0 | 7.0 | 0.00 | 0.01 | 0.00 | 77 | 1015.5 |
| 20260505224508 | 60 | 304 | 2.0 | 10.0 | 0.00 | 0.01 | 0.00 | 76 | 1015.5 |
| 20260505224004 | 60 | 288 | 5.0 | 10.0 | 0.00 | 0.01 | 0.00 | 76 | 1015.6 |
| 20260505223506 | 60 | 301 | 3.0 | 10.0 | 0.00 | 0.01 | 0.00 | 76 | 1015.5 |
| 20260505223016 | 59 | 308 | 2.0 | 7.0 | 0.00 | 0.01 | 0.00 | 78 | 1015.7 |
| 20260505222508 | 59 | 284 | 2.0 | 6.0 | 0.00 | 0.01 | 0.00 | 78 | 1015.8 |
| 20260505222005 | 59 | 193 | 2.0 | 5.0 | 0.00 | 0.02 | 0.00 | 79 | 1015.8 |
| 20260505221517 | 58 | 195 | 0.0 | 8.0 | 0.00 | 0.02 | 0.00 | 80 | 1015.9 |
| 20260505221007 | 58 | 232 | 3.0 | 8.0 | 0.00 | 0.02 | 0.00 | 80 | 1015.8 |
| 20260505220506 | 58 | 157 | 4.0 | 8.0 | 0.00 | 0.02 | 0.00 | 80 | 1015.8 |
| 20260505220022 | 58 | 166 | 5.0 | 8.0 | 0.00 | 0.02 | 0.00 | 80 | 1015.9 |
| 20260505215503 | 57 | 144 | 4.0 | 6.0 | 0.00 | 0.02 | 0.00 | 82 | 1015.9 |
| 20260505215006 | 57 | 172 | 4.0 | 7.0 | 0.00 | 0.02 | 0.00 | 82 | 1016.1 |
| 20260505214509 | 57 | 158 | 3.0 | 7.0 | 0.00 | 0.02 | 0.00 | 82 | 1016.1 |
| 20260505214007 | 57 | 161 | 3.0 | 7.0 | 0.00 | 0.02 | 0.00 | 81 | 1016.1 |
| 20260505213506 | 57 | 182 | 5.0 | 7.0 | 0.00 | 0.02 | 0.00 | 83 | 1016.1 |
| 20260505213007 | 56 | 155 | 3.0 | 6.0 | 0.00 | 0.02 | 0.00 | 83 | 1016.1 |
| 20260505212506 | 56 | 133 | 3.0 | 8.0 | 0.00 | 0.02 | 0.00 | 82 | 1016.2 |
| 20260505212011 | 56 | 119 | 3.0 | 8.0 | 0.00 | 0.02 | 0.00 | 82 | 1016.2 |
| 20260505211524 | 56 | 140 | 5.0 | 8.0 | 0.00 | 0.03 | 0.00 | 83 | 1016.1 |
| 20260505211007 | 56 | 146 | 5.0 | 7.0 | 0.00 | 0.03 | 0.00 | 82 | 1016.2 |
| 20260505210506 | 56 | 155 | 2.0 | 8.0 | 0.00 | 0.04 | 0.00 | 83 | 1016.2 |
| 20260505210023 | 56 | 146 | 5.0 | 8.0 | 0.00 | 0.05 | 0.00 | 82 | 1016.3 |
| 20260505205506 | 56 | 156 | 5.0 | 7.0 | 0.00 | 0.06 | 0.00 | 82 | 1016.2 |
| 20260505205011 | 56 | 144 | 2.0 | 7.0 | 0.00 | 0.08 | 0.00 | 82 | 1016.2 |
| 20260505204528 | 56 | 136 | 5.0 | 9.0 | 0.00 | 0.09 | 0.00 | 82 | 1016.1 |
| 20260505204004 | 56 | 138 | 4.0 | 9.0 | 0.00 | 0.11 | 0.00 | 81 | 1016.2 |
| 20260505203504 | 57 | 129 | 1.0 | 6.0 | 0.00 | 0.13 | 0.00 | 80 | 1016.1 |
| 20260505203009 | 57 | 190 | 1.0 | 7.0 | 0.00 | 0.17 | 0.00 | 80 | 1016.2 |
| 20260505202505 | 57 | 262 | 1.0 | 7.0 | 0.00 | 0.17 | 0.00 | 81 | 1016.2 |
| 20260505202007 | 56 | 217 | 0.0 | 6.0 | 0.00 | 0.17 | 0.00 | 81 | 1016.1 |
| 20260505201511 | 56 | 101 | 2.0 | 7.0 | 0.00 | 0.17 | 0.00 | 81 | 1016.1 |
| 20260505201007 | 57 | 127 | 5.0 | 8.0 | 0.00 | 0.17 | 0.00 | 80 | 1016.1 |
| 20260505200507 | 57 | 101 | 1.0 | 8.0 | 0.00 | 0.17 | 0.00 | 81 | 1016.1 |
| 20260505200022 | 57 | 109 | 6.0 | 8.0 | 0.00 | 0.17 | 0.00 | 79 | 1016.1 |
| 20260505195506 | 57 | 121 | 6.0 | 8.0 | 0.00 | 0.17 | 0.00 | 79 | 1016.1 |
| 20260505195010 | 58 | 178 | 4.0 | 6.0 | 0.00 | 0.17 | 0.00 | 78 | 1016.1 |
| 20260505194528 | 58 | 261 | 1.0 | 4.0 | 0.00 | 0.17 | 0.00 | 78 | 1016.1 |
| 20260505194007 | 58 | 286 | 1.0 | 7.0 | 0.00 | 0.17 | 0.00 | 78 | 1016.1 |
| 20260505193509 | 58 | 250 | 2.0 | 7.0 | 0.00 | 0.17 | 0.00 | 79 | 1016.1 |
| 20260505193009 | 58 | 311 | 1.0 | 3.0 | 0.00 | 0.17 | 0.00 | 78 | 1016.1 |
| 20260505192504 | 58 | 113 | 1.0 | 5.0 | 0.00 | 0.17 | 0.00 | 76 | 1016.1 |
| 20260505192005 | 58 | 90 | 2.0 | 6.0 | 0.00 | 0.17 | 0.00 | 76 | 1016.0 |
| 20260505191512 | 58 | 163 | 3.0 | 6.0 | 0.00 | 0.17 | 0.00 | 78 | 1016.0 |
| 20260505191006 | 58 | 144 | 4.0 | 6.0 | 0.00 | 0.17 | 0.00 | 77 | 1016.1 |
| 20260505190505 | 57 | 165 | 0.0 | 6.0 | 0.00 | 0.17 | 0.00 | 76 | 1016.1 |
| 20260505190014 | 57 | 83 | 1.0 | 7.0 | 0.00 | 0.17 | 0.00 | 77 | 1016.0 |
| 20260505185508 | 56 | 76 | 1.0 | 7.0 | 0.00 | 0.17 | 0.00 | 78 | 1016.0 |
| 20260505185009 | 56 | 130 | 3.0 | 8.0 | 0.00 | 0.17 | 0.00 | 76 | 1016.0 |
| 20260505184525 | 56 | 77 | 3.0 | 9.0 | 0.00 | 0.17 | 0.00 | 78 | 1016.0 |
| 20260505184008 | 57 | 73 | 5.0 | 9.0 | 0.00 | 0.17 | 0.00 | 77 | 1016.1 |
| 20260505183508 | 57 | 65 | 4.0 | 8.0 | 0.00 | 0.17 | 0.00 | 79 | 1016.1 |
| 20260505183026 | 57 | 86 | 5.0 | 8.0 | 0.00 | 0.17 | 0.00 | 78 | 1016.2 |
| 20260505182507 | 56 | 86 | 2.0 | 9.0 | 0.00 | 0.17 | 0.00 | 78 | 1016.1 |
| 20260505182012 | 56 | 60 | 4.0 | 9.0 | 0.00 | 0.17 | 0.00 | 79 | 1016.0 |
| 20260505181509 | 56 | 82 | 3.0 | 9.0 | 0.00 | 0.17 | 0.00 | 79 | 1015.9 |
| 20260505181005 | 56 | 33 | 2.0 | 9.0 | 0.00 | 0.17 | 0.00 | 82 | 1015.9 |
| 20260505180507 | 55 | 86 | 4.0 | 9.0 | 0.00 | 0.17 | 0.00 | 81 | 1015.9 |
| 20260505180003 | 55 | 21 | 5.0 | 9.0 | 0.00 | 0.17 | 0.00 | 80 | 1015.9 |
| 20260505175503 | 55 | 62 | 2.0 | 7.0 | 0.00 | 0.17 | 0.00 | 82 | 1015.8 |
| 20260505175005 | 55 | 109 | 4.0 | 9.0 | 0.00 | 0.17 | 0.00 | 81 | 1015.8 |
| 20260505174503 | 54 | 69 | 5.0 | 8.0 | 0.00 | 0.17 | 0.00 | 84 | 1015.7 |
| 20260505174003 | 53 | 160 | 1.0 | 5.0 | 0.00 | 0.17 | 0.00 | 85 | 1015.6 |
| 20260505173507 | 52 | 167 | 1.0 | 4.0 | 0.00 | 0.17 | 0.00 | 86 | 1015.6 |
| 20260505173006 | 52 | 250 | 1.0 | 4.0 | 0.00 | 0.17 | 0.00 | 87 | 1015.5 |
| 20260505172503 | 51 | 158 | 1.0 | 4.0 | 0.00 | 0.17 | 0.00 | 86 | 1015.5 |
| 20260505172003 | 51 | 122 | 1.0 | 3.0 | 0.00 | 0.17 | 0.00 | 86 | 1015.5 |
| 20260505171506 | 51 | 84 | 0.0 | 3.0 | 0.00 | 0.17 | 0.00 | 87 | 1015.5 |
| 20260505171004 | 51 | 114 | 2.0 | 3.0 | 0.00 | 0.17 | 0.00 | 87 | 1015.5 |
| 20260505170504 | 51 | 184 | 1.0 | 2.0 | 0.00 | 0.17 | 0.00 | 88 | 1015.5 |
| 20260505170013 | 50 | 223 | 0.0 | 3.0 | 0.00 | 0.17 | 0.00 | 88 | 1015.5 |
| 20260505165505 | 50 | 225 | 1.0 | 3.0 | 0.00 | 0.17 | 0.00 | 89 | 1015.5 |
| 20260505165002 | 50 | 236 | 1.0 | 3.0 | 0.00 | 0.17 | 0.00 | 90 | 1015.5 |
| 20260505164503 | 49 | 211 | 0.0 | 3.0 | 0.00 | 0.17 | 0.00 | 92 | 1015.5 |
| 20260505164003 | 49 | 211 | 1.0 | 2.0 | 0.00 | 0.17 | 0.00 | 92 | 1015.5 |
| 20260505163504 | 48 | 236 | 0.0 | 2.0 | 0.00 | 0.17 | 0.00 | 92 | 1015.4 |
| 20260505163004 | 48 | 243 | 0.0 | 2.0 | 0.00 | 0.17 | 0.00 | 93 | 1015.4 |
| 20260505162503 | 47 | 294 | 0.0 | 3.0 | 0.00 | 0.17 | 0.00 | 93 | 1015.4 |
| 20260505162002 | 47 | 290 | 1.0 | 3.0 | 0.00 | 0.17 | 0.00 | 92 | 1015.4 |
| 20260505161506 | 47 | 251 | 1.0 | 3.0 | 0.00 | 0.17 | 0.00 | 93 | 1015.4 |
| 20260505161003 | 47 | 244 | 0.0 | 2.0 | 0.00 | 0.17 | 0.00 | 93 | 1015.3 |
| 20260505160503 | 46 | 263 | 0.0 | 2.0 | 0.00 | 0.17 | 0.00 | 93 | 1015.4 |
| 20260505153004 | 46 | 275 | 0.0 | 2.0 | 0.00 | 0.17 | 0.00 | 93 | 1015.3 |
| 20260505152503 | 46 | 313 | 0.0 | 3.0 | 0.00 | 0.17 | 0.00 | 93 | 1015.2 |
| 20260505152005 | 46 | 316 | 1.0 | 3.0 | 0.00 | 0.17 | 0.00 | 93 | 1015.1 |
| 20260505151504 | 46 | 265 | 0.0 | 2.0 | 0.00 | 0.17 | 0.00 | 93 | 1015.1 |
| 20260505151004 | 46 | 253 | 0.0 | 2.0 | 0.00 | 0.17 | 0.00 | 93 | 1015.1 |
| 20260505150504 | 46 | 271 | 0.0 | 2.0 | 0.00 | 0.17 | 0.00 | 93 | 1015.1 |
| 20260505140503 | 45 | 321 | 2.0 | 3.0 | 0.00 | 0.17 | 0.00 | 95 | 1014.4 |
| 20260505125003 | 44 | 331 | 1.0 | 3.0 | 0.00 | 0.17 | 0.00 | 95 | 1014.2 |
| 20260505124508 | 44 | 336 | 2.0 | 3.0 | 0.00 | 0.17 | 0.00 | 95 | 1014.2 |
| 20260505124004 | 44 | 339 | 2.0 | 3.0 | 0.00 | 0.17 | 0.00 | 95 | 1014.2 |
| 20260505123504 | 44 | 312 | 1.0 | 3.0 | 0.00 | 0.17 | 0.00 | 95 | 1014.2 |
| 20260505123014 | 44 | 304 | 1.0 | 3.0 | 0.00 | 0.17 | 0.00 | 95 | 1014.2 |
| 20260505122510 | 44 | 294 | 2.0 | 3.0 | 0.00 | 0.17 | 0.00 | 95 | 1014.1 |
| 20260505122009 | 44 | 296 | 1.0 | 4.0 | 0.00 | 0.17 | 0.00 | 95 | 1014.2 |
| 20260505121529 | 44 | 321 | 2.0 | 4.0 | 0.00 | 0.17 | 0.00 | 95 | 1014.1 |
| 20260505121006 | 44 | 304 | 2.0 | 3.0 | 0.00 | 0.17 | 0.00 | 95 | 1014.1 |
| 20260505120506 | 44 | 304 | 2.0 | 4.0 | 0.00 | 0.17 | 0.00 | 95 | 1014.1 |
| 20260505120024 | 44 | 308 | 3.0 | 5.0 | 0.00 | 0.17 | 0.00 | 95 | 1014.1 |
| 20260505115504 | 44 | 311 | 3.0 | 5.0 | 0.00 | 0.17 | 0.00 | 95 | 1014.2 |
| 20260505115003 | 44 | 312 | 2.0 | 3.0 | 0.00 | 0.17 | 0.00 | 95 | 1014.2 |
| 20260505114506 | 44 | 319 | 1.0 | 4.0 | 0.00 | 0.17 | 0.00 | 95 | 1014.2 |
| 20260505114004 | 44 | 300 | 2.0 | 5.0 | 0.00 | 0.17 | 0.00 | 95 | 1014.2 |
| 20260505113503 | 44 | 288 | 3.0 | 5.0 | 0.00 | 0.17 | 0.00 | 95 | 1014.2 |
| 20260505113011 | 44 | 324 | 2.0 | 4.0 | 0.00 | 0.17 | 0.00 | 95 | 1014.2 |
| 20260505112503 | 44 | 310 | 2.0 | 4.0 | 0.00 | 0.17 | 0.00 | 95 | 1014.3 |
| 20260505112007 | 44 | 298 | 3.0 | 4.0 | 0.00 | 0.17 | 0.00 | 95 | 1014.3 |
| 20260505111514 | 44 | 322 | 2.0 | 4.0 | 0.00 | 0.17 | 0.00 | 95 | 1014.2 |
| 20260505111004 | 44 | 322 | 2.0 | 5.0 | 0.00 | 0.17 | 0.00 | 94 | 1014.3 |
| 20260505110508 | 44 | 309 | 3.0 | 5.0 | 0.00 | 0.17 | 0.00 | 94 | 1014.3 |